Location: Lawrence Hall of Science
(37.8785°N, 122.2415°W)
Time: 18:39:12
(UTC-07:00)

Daily predictions for brighter satellites

Satellite Brightness Start Highest point End
(mag) Time Altitude Azimuth Time Altitude Azimuth Time Altitude Azimuth
Cosmos 1464 Rocket 4.0 20:48:12 10° N 20:54:23 86° E 21:00:36 10° S
Milstar 3 Cent rocket 4.3 20:46:57 10° W 20:55:09 26° SSW 21:00:15 10° SSE
CZ-3C R/B 4.1 20:54:42 10° SW 21:00:31 14° SSW 21:03:32 10° S
SPOT 5 4.0 21:00:43 10° ESE 21:04:07 23° ENE 21:07:29 10° NNE
ATLAS 3B R/B 3.1 20:59:38 10° S 21:07:02 53° ESE 21:14:20 10° NE
CZ-4 DEB 3.7 21:08:46 10° S 21:11:53 48° W 21:15:02 10° NNW
Cosmos 1666 3.4 21:08:36 10° NNW 21:12:26 57° W 21:16:14 10° S
Cosmos 2034 Rocket 4.1 21:10:05 10° N 21:16:28 86° W 21:22:45 10° S
GRACE-1 4.0 21:16:19 10° N 21:19:09 54° E 21:21:57 10° S
GRACE-2 4.0 21:16:46 10° N 21:19:35 55° E 21:22:23 10° S
Cosmos 2369 Rocket 2.7 21:16:21 10° N 21:21:47 46° ENE 21:26:23 14° SE
ERS-1 Rocket 3.0 21:18:23 10° SSE 21:23:24 88° WSW 21:28:27 10° NNW
DEBRIS 2.4 21:22:04 10° NW 21:27:07 77° SW 21:28:40 19° SE
COSMOS 2455 3.5 21:22:01 10° SW 21:27:57 61° WNW 21:33:55 10° NNE
Cosmos 1900 4.4 21:26:10 10° SSW 21:31:12 59° ESE 21:36:16 10° NE
SJ-11-01 4.4 21:26:50 10° S 21:31:29 80° WSW 21:36:11 10° NNW
CZ-2C R/B 2.0 21:31:16 10° SSW 21:33:21 32° W 21:35:26 10° NNW
Cosmos 1758 Rocket 4.4 21:34:21 17° SE 21:37:00 31° E 21:40:51 10° NNE
Envisat 3.0 21:37:30 14° SSE 21:41:52 73° ENE 21:46:57 10° N
Cosmos 1515 3.8 21:39:13 10° S 21:43:04 79° W 21:46:57 10° N
SL-27 R/B 3.8 21:44:18 20° E 21:44:18 20° E 21:46:39 10° NE
GEOS 3 Rocket 3.7 21:40:33 16° SSE 21:44:48 77° SW 21:50:03 10° NW
Cosmos 407 Rocket 3.5 21:39:37 10° S 21:44:50 65° ESE 21:50:00 10° NNE
BREEZE-M DEB (TANK) 4.1 21:43:50 10° WSW 21:47:59 35° NW 21:50:06 10° NE
Cosmos 1825 Rocket 3.5 21:47:56 10° S 21:52:22 86° E 21:56:49 10° N
USA 238 DEB 4.0 21:48:14 10° S 21:54:54 45° ESE 22:01:34 10° NE
USA 238 4.0 21:48:21 10° S 21:55:00 45° ESE 22:01:39 10° NE
Cosmos 2263 4.3 21:52:02 10° NNW 21:57:39 66° ENE 22:01:02 24° SE
MetOp-A 4.2 21:54:18 21° SSE 21:57:57 69° ENE 22:03:17 10° N
Lacrosse 4 Rocket 2.1 21:56:15 10° SW 22:00:12 54° WNW 22:04:14 10° NNE
ISS 0.0 22:02:16 10° NW 22:03:49 13° NNW 22:05:24 10° N
Cosmos 1066 Rocket 4.4 21:59:15 10° SSW 22:04:57 80° W 22:10:48 10° N
UNK 4.3 22:00:11 10° NNE 22:05:44 88° E 22:11:37 10° SSW
COSMOS 2406 3.8 22:03:22 24° SSE 22:06:02 37° ESE 22:11:15 10° NE
Cosmos 1954 Rocket 4.1 22:02:05 15° S 22:06:21 58° ESE 22:11:33 10° NNE
Cosmos 1943 Rocket 2.7 22:05:31 10° N 22:10:51 45° ENE 22:13:25 28° ESE
H-2A R/B 3.8 22:08:05 10° SSW 22:11:49 29° W 22:15:38 10° NW
CZ-4C R/B 4.4 22:11:59 28° E 22:12:55 31° ENE 22:16:29 10° N
SeaSat 1 2.4 22:12:25 31° SE 22:14:48 74° ENE 22:19:45 10° NNW
Atlas Centaur 2 3.3 22:15:03 10° WSW 22:21:49 45° S 22:25:27 29° SE
Meteor 1-22 Rocket 4.3 22:17:38 10° NNW 22:23:20 79° W 22:26:54 25° S
PSLV R/B 3.7 22:22:34 10° WNW 22:26:04 62° NNE 22:26:59 43° ENE
Cosmos 1953 2.9 22:24:39 10° N 22:28:25 39° E 22:28:40 39° E
Cosmos 1741 Rocket 4.3 22:30:05 39° SE 22:31:16 45° ESE 22:36:20 10° NNE
CZ-4 R/B 3.9 22:28:46 10° NNE 22:33:48 88° WNW 22:36:38 27° SSW
Cosmos 1346 Rocket 4.3 22:30:42 11° SW 22:34:04 35° WNW 22:37:43 10° N
CZ-4B R/B 4.0 22:29:13 10° N 22:34:18 61° WNW 22:39:05 12° SSW
Geosat 4.3 22:30:44 10° NE 22:35:32 44° ESE 22:36:05 42° SE
Cosmos 1842 3.2 22:36:20 53° SSW 22:37:12 85° W 22:41:08 10° N
Terra 2.5 22:36:48 34° E 22:37:42 37° ENE 22:42:04 10° N
USA 245 4.3 22:36:16 30° S 22:39:06 69° WSW 22:43:58 10° NNW
Cosmos 1023 Rocket 4.4 22:38:32 33° S 22:40:58 78° ESE 22:46:15 10° NNE
Cosmos-2242 3.0 22:36:39 10° N 22:41:04 74° E 22:41:48 58° SE
SPOT 5 4.3 22:39:31 16° SW 22:42:03 28° W 22:45:46 10° NW
ARGOS 3.1 22:41:02 38° S 22:43:13 81° WSW 22:48:41 10° NNW
Nadezhda 4 Rocket 4.1 22:42:56 39° SSE 22:45:10 59° E 22:51:22 10° NNE
Cosmos 1850 Rocket 3.9 22:45:13 46° SSE 22:46:39 67° ESE 22:51:50 10° NNE
Cosmos 1140 Rocket 3.4 22:46:24 32° SSW 22:48:54 89° WNW 22:54:11 10° NNE
YAOGAN 6 4.1 22:52:53 28° WSW 22:53:44 31° W 22:57:06 10° NNW
Cosmos 1570 Rocket 4.1 22:48:42 10° NNW 22:54:04 68° ENE 22:55:11 53° SE
SL-8 R/B 4.4 22:50:44 10° NW 22:55:26 49° NNE 22:57:01 35° ENE
H-2A R/B 2.0 22:54:58 54° ESE 22:55:51 64° ENE 23:00:54 10° N
ATLAS 3B R/B 4.4 22:51:02 10° WSW 22:58:02 37° NW 23:04:54 10° NNE
Cosmos 2369 Rocket 4.0 23:01:12 10° NW 23:05:25 22° W 23:08:12 15° SW
SAR-Lupe-2 4.0 23:06:53 58° N 23:06:53 58° N 23:09:50 10° NNW
Cosmos 1607 4.0 23:00:45 13° SW 23:06:32 78° WNW 23:12:47 10° NNE
SL-08 RB Rocket 4.3 23:07:44 42° SW 23:08:33 47° W 23:12:56 10° NNW
Cosmos 614 Rocket 3.8 23:07:38 59° S 23:08:39 87° ESE 23:13:53 10° NNE
Cosmos 1340 4.0 23:10:35 32° NE 23:10:35 32° NE 23:12:54 10° NNE
NOSS 3-2 (A) 3.4 23:10:05 54° SSE 23:10:55 59° ESE 23:17:18 10° NE
Cosmos 1544 4.0 23:08:11 10° N 23:10:59 43° NNE 23:10:59 43° NNE
USA 234 3.2 23:11:49 45° SE 23:14:04 84° NE 23:20:40 10° NW
CARTOSAT-1 3.5 23:16:15 77° W 23:16:15 77° W 23:20:32 10° NNW
Spot 2 4.4 23:11:26 10° NNE 23:16:23 86° WNW 23:17:10 65° SSW
Cosmos 1758 4.0 23:13:14 10° NNW 23:17:13 49° W 23:17:14 49° W
Okean 3 Rocket 4.0 23:22:49 54° NE 23:22:49 54° NE 23:26:28 10° NNE
Cosmos 2026 Rocket 4.3 23:24:08 46° E 23:24:27 46° E 23:30:12 10° NNE
Meteor 2-5 Rocket 3.7 23:25:22 65° SE 23:25:58 71° E 23:31:43 10° NNE
Cosmos 1470 3.6 23:27:21 10° N 23:30:11 46° N 23:30:11 46° N
COSMOS 2487 3.9 23:32:57 37° NNW 23:32:57 37° NNW 23:35:31 10° N
IGS 5A 4.0 23:32:51 53° WNW 23:32:51 53° WNW 23:36:27 10° NNW
CZ-4C R/B 1.9 23:33:48 80° SSE 23:33:59 81° ESE 23:39:51 10° NE
Cosmos 1627 Rocket 4.3 23:37:34 66° SE 23:38:07 70° E 23:44:14 10° NNE
Cosmos 2278 4.5 23:37:26 10° N 23:42:43 39° ENE 23:43:20 38° ENE
CZ-4B R/B 4.3 23:45:06 13° NE 23:45:06 13° NE 23:45:57 10° NE
Cosmos 2344 4.1 23:45:49 40° ESE 23:45:49 40° ESE 23:53:18 10° NE
Cosmos 1943 Rocket 3.8 23:50:03 10° NW 23:54:14 22° W 23:54:56 22° WSW
